Weather Roundup
Issued by NWS Chicago, IL

Home | Current Version | Previous Version | Text Only | Print | Product List | Glossary On
Versions: 1 2 3 4 5 6 7 8 9 10 11 12 13 14 15 16 17 18 19 20 21 22 23 24 25 26 27 28 29 30 31 32 33 34 35 36 37 38 39 40 41 42 43 44 45 46 47 48 49 50
000
NZUS59 KLOT 021321
HRRLOT

CHICAGO AREA WEATHER ROUNDUP
NATIONAL WEATHER SERVICE CHICAGO/ROMEOVILLE IL
800 AM CDT THU JUL 02 2015

NOTE: "FAIR" INDICATES FEW OR NO CLOUDS BELOW 12,000 FEET WITH NO
SIGNIFICANT WEATHER AND/OR OBSTRUCTIONS TO VISIBILITY.

* THESE STATIONS ARE NOT UNDER NWS QUALITY CONTROL. THEY ALSO MAY NOT
  REPORT WEATHER SUCH AS PRECIPITATION OR FOG.

ILZ005-006-012>014-019>023-021400-
NORTHEAST ILLINOIS

CITY           SKY/WX    TMP DP  RH WIND       PRES   REMARKS
OHARE          CLOUDY    57  53  86 NE8       30.01R
MIDWAY         PTSUNNY   62  56  80 NE10      30.00R
AURORA         CLOUDY    57  52  83 NE10      30.02R
WAUKEGAN       CLOUDY    56  52  86 N9        30.03R
DUPAGE AIRPORT CLOUDY    56  53  90 NE8       30.01R
WHEELING       CLOUDY    57  53  86 N7        30.04R
NORTHERLY IS     N/A     60  56  86 NE8         N/A
$$

WIZ051-052-058>065-066-070>072-021400-
SOUTHEAST WISCONSIN

CITY           SKY/WX    TMP DP  RH WIND       PRES   REMARKS
MILWAUKEE      MOSUNNY   56  51  84 N7        30.07R
KENOSHA*       MOSUNNY   57  52  83 NE5       30.05R
RACINE*        SUNNY     57  51  80 N8        30.06R
WAUKESHA       SUNNY     54  48  82 N5        30.07R
$$

INZ001>003-010>013-019-020-021400-
NORTHWEST INDIANA

CITY           SKY/WX    TMP DP  RH WIND       PRES   REMARKS
GARY*          PTSUNNY   63  57  82 N12       29.99R
MICHIGAN CITY* NOT AVBL
RENSSELAER*    NOT AVBL
VALPARAISO     SUNNY     61  55  81 NE7       29.98S
$$

LMZ740>746-021400-
SOUTHERN LAKE MICHIGAN

STATION/POSITION TIME  SKY/WX   TEMP WIND        PRES    VSBY
                                AIR  DIR/SP/G
                 (UTC)          (F)  (DEG/KT/KT) (MB)    (MI)
HARRISON CRIB    1300            57   20/ 11/ 12   N/A
BURNHAM HARBOR   1300            60   20/  9/ 11   N/A
CALUMET HARBOR   1200            58  360/  6/ 11   N/A
BURNS HARBOR     1200            59   60/ 11/ 14 1015.6R
MICHIGAN CITY    1300            58   20/  7/  8   N/A
$$

ABBREVIATIONS USED IN REMARKS
   TC - TEMPERATURE IN CELSIUS
  WCI - WIND CHILL INDEX
   HX - HEAT INDEX
  VSB - VISIBILITY
$$



USA.gov is the U.S. government's official web portal to all federal, state and local government web resources and services.